{"data":{"norad_id":43752,"epoch":"2026-09-20T05:20:23.063424Z","epoch_age_seconds":78721,"freshness":"FRESH","line1":"1 43752U 18097B   26263.22248916  .00000131  00000+0  87148-3 0  9994","line2":"2 43752  82.5226 164.4074 0015500 205.2960 154.7362 12.42915286354111","mean_motion":12.42915286,"eccentricity":0.00155,"inclination_deg":82.5226,"raan_deg":164.4074,"arg_perigee_deg":205.296,"mean_anomaly_deg":154.7362,"bstar":0.00087148,"rev_number":35411,"period_min":115.85664897841,"perigee_km":1482.0668582123,"apogee_km":1506.471317084,"semimajor_km":7872.4060876481,"source":"CELESTRAK","updated_at":"2026-09-20T09:00:14.399287Z"}}